,,PA_Meas_PMT16A,,PR_Meas_QMR101_102,,RH_Meas_QMH101,,SR_Meas_QMS101,,TA_Meas_QMH101,,GenWind,,GenWind,
time,status,PA,status,PR,status,RH,status,SR,status,TA,status,DirAvg,status,SpdAvg,
2010-03-05, 00:00:04,VALID,919.197,VALID,0,VALID,96.8326,VALID,0,VALID,21.2031,VALID,39,VALID,1.13789,
2010-03-05, 00:01:04,VALID,919.15,VALID,0,VALID,96.8631,VALID,0,VALID,21.2437,VALID,39,VALID,1.12031,
2010-03-05, 00:02:04,VALID,919.114,VALID,0,VALID,96.8784,VALID,0,VALID,21.2226,VALID,39,VALID,0.950781,
2010-03-05, 00:03:04,VALID,919.043,VALID,0,VALID,96.8936,VALID,0,VALID,21.2632,VALID,39,VALID,0.635547,
2010-03-05, 00:04:04,VALID,919.023,VALID,0,VALID,96.8098,VALID,0,VALID,21.2421,VALID,39,VALID,0.694922,
2010-03-05, 00:05:04,VALID,918.986,VALID,0,VALID,96.7564,VALID,0,VALID,21.2226,VALID,39,VALID,0.575,
2010-03-05, 00:06:04,VALID,918.951,VALID,0,VALID,96.7564,VALID,0,VALID,21.2242,VALID,39,VALID,1.01406,
2010-03-05, 00:07:04,VALID,918.925,VALID,0,VALID,96.8403,VALID,0,VALID,21.2421,VALID,39,VALID,0.787109,
2010-03-05, 00:08:04,VALID,918.898,VALID,0,VALID,96.7411,VALID,0,VALID,21.2827,VALID,39,VALID,0.555469,
2010-03-05, 00:09:04,VALID,918.901,VALID,0,VALID,96.6802,VALID,0,VALID,21.2421,VALID,39,VALID,1.12969,
2010-03-05, 00:10:04,VALID,918.901,VALID,0,VALID,96.6649,VALID,0,VALID,21.2827,VALID,39,VALID,0.622656,
2010-03-05, 00:11:04,VALID,918.865,VALID,0,VALID,96.6115,VALID,0,VALID,21.2827,VALID,39,VALID,0.828125,
2010-03-05, 00:12:04,VALID,918.855,VALID,0,VALID,96.5811,VALID,0,VALID,21.2811,VALID,39,VALID,0.927344,
2010-03-05, 00:13:04,VALID,918.807,VALID,0,VALID,96.4896,VALID,0,VALID,21.2616,VALID,39,VALID,1.04141,
2010-03-05, 00:14:04,VALID,918.796,VALID,0,VALID,96.4591,VALID,0,VALID,21.2421,VALID,39,VALID,1.08438,
2010-03-05, 00:15:04,VALID,918.797,VALID,0,VALID,96.421,VALID,0,VALID,21.2226,VALID,39,VALID,1.14492,
2010-03-05, 00:16:04,VALID,918.754,VALID,0,VALID,96.3829,VALID,0,VALID,21.2242,VALID,39,VALID,1.16445,
2010-03-05, 00:17:04,VALID,918.765,VALID,0,VALID,96.3905,VALID,0,VALID,21.1852,VALID,39,VALID,0.803906,
2010-03-05, 00:18:04,VALID,918.732,VALID,0,VALID,96.4057,VALID,0,VALID,21.1852,VALID,39,VALID,0.860937,
2010-03-05, 00:19:04,VALID,918.714,VALID,0,VALID,96.4362,VALID,0,VALID,21.1461,VALID,39,VALID,1.00234,
2010-03-05, 00:20:04,VALID,918.682,VALID,0,VALID,96.4591,VALID,0,VALID,21.1266,VALID,39,VALID,0.672656,
2010-03-05, 00:21:04,VALID,918.691,VALID,0,VALID,96.5353,VALID,0,VALID,21.1266,VALID,39,VALID,0.594531,
2010-03-05, 00:22:04,VALID,918.706,VALID,0,VALID,96.5124,VALID,0,VALID,21.1071,VALID,38,VALID,0.401563,
2010-03-05, 00:23:04,VALID,918.732,VALID,0,VALID,96.5506,VALID,0,VALID,21.0876,VALID,39,VALID,0.472656,
2010-03-05, 00:24:04,VALID,918.722,VALID,0,VALID,96.5811,VALID,0,VALID,21.047,VALID,39,VALID,0.673047,
2010-03-05, 00:25:04,VALID,918.72,VALID,0,VALID,96.6115,VALID,0,VALID,21.0486,VALID,39,VALID,0.514453,
2010-03-05, 00:26:04,VALID,918.756,VALID,0,VALID,96.6115,VALID,0,VALID,21.0291,VALID,39,VALID,0.536328,
2010-03-05, 00:27:04,VALID,918.735,VALID,0,VALID,96.6497,VALID,0,VALID,21.008,VALID,39,VALID,0.261328,
2010-03-05, 00:28:04,VALID,918.747,VALID,0,VALID,96.6802,VALID,0,VALID,21.0291,VALID,38,VALID,0,
2010-03-05, 00:29:04,VALID,918.767,VALID,0,VALID,96.6878,VALID,0,VALID,21.0275,VALID,39,VALID,0.115234,
2010-03-05, 00:30:04,VALID,918.756,VALID,0,VALID,96.7183,VALID,0,VALID,21.0291,VALID,39,VALID,0.117578,
2010-03-05, 00:31:04,VALID,918.774,VALID,0,VALID,96.7564,VALID,0,VALID,21.0486,VALID,39,VALID,0.248047,
2010-03-05, 00:32:04,VALID,918.773,VALID,0,VALID,96.7716,VALID,0,VALID,21.0486,VALID,39,VALID,0.562109,
2010-03-05, 00:33:04,VALID,918.794,VALID,0,VALID,96.7107,VALID,0,VALID,21.0291,VALID,39,VALID,0.473047,
2010-03-05, 00:34:04,VALID,918.789,VALID,0,VALID,96.7793,VALID,0,VALID,21.0486,VALID,39,VALID,0.239844,
2010-03-05, 00:35:04,VALID,918.808,VALID,0,VALID,96.764,VALID,0,VALID,21.0876,VALID,39,VALID,0.280469,
2010-03-05, 00:36:04,VALID,918.828,VALID,0,VALID,96.7716,VALID,0,VALID,21.0876,VALID,39,VALID,0.489453,
2010-03-05, 00:37:04,VALID,918.831,VALID,0,VALID,96.7716,VALID,0,VALID,21.1071,VALID,39,VALID,0.321094,
2010-03-05, 00:38:04,VALID,918.839,VALID,0,VALID,96.7793,VALID,0,VALID,21.1266,VALID,39,VALID,0.0554687,
2010-03-05, 00:39:04,VALID,918.863,VALID,0,VALID,96.8326,VALID,0,VALID,21.1657,VALID,39,VALID,0,
2010-03-05, 00:40:04,VALID,918.833,VALID,0,VALID,96.8784,VALID,0,VALID,21.1852,VALID,39,VALID,0.454297,
2010-03-05, 00:41:04,VALID,918.836,VALID,0,VALID,96.8555,VALID,0,VALID,21.1852,VALID,39,VALID,0.554688,
2010-03-05, 00:42:04,VALID,918.841,VALID,0,VALID,96.7793,VALID,0,VALID,21.164,VALID,39,VALID,0.651172,
2010-03-05, 00:43:04,VALID,918.811,VALID,0,VALID,96.7259,VALID,0.107441,VALID,21.164,VALID,39,VALID,0.828906,
2010-03-05, 00:44:04,VALID,918.818,VALID,0,VALID,96.7259,VALID,0.107441,VALID,21.1445,VALID,39,VALID,0.631641,
2010-03-05, 00:45:04,VALID,918.797,VALID,0,VALID,96.7716,VALID,0.107441,VALID,21.125,VALID,39,VALID,0.498047,
2010-03-05, 00:46:04,VALID,918.803,VALID,0,VALID,96.7107,VALID,0.107441,VALID,21.1234,VALID,39,VALID,0.538672,
2010-03-05, 00:47:04,VALID,918.776,VALID,0,VALID,96.6649,VALID,0.107441,VALID,21.1266,VALID,39,VALID,0.498828,
2010-03-05, 00:48:04,VALID,918.77,VALID,0,VALID,96.703,VALID,0,VALID,21.1055,VALID,39,VALID,0.577734,
2010-03-05, 00:49:04,VALID,918.764,VALID,0,VALID,96.6497,VALID,0,VALID,21.1071,VALID,38,VALID,0.408594,
2010-03-05, 00:50:04,VALID,918.755,VALID,0,VALID,96.7259,VALID,0.107441,VALID,21.0649,VALID,39,VALID,0.232812,
2010-03-05, 00:51:04,VALID,918.747,VALID,0,VALID,96.6649,VALID,0,VALID,21.0665,VALID,39,VALID,0.140234,
2010-03-05, 00:52:04,VALID,918.739,VALID,0,VALID,96.6649,VALID,0.107441,VALID,21.047,VALID,39,VALID,0.336328,
2010-03-05, 00:53:04,VALID,918.763,VALID,0,VALID,96.6115,VALID,0.107441,VALID,21.0275,VALID,39,VALID,0.2125,
2010-03-05, 00:54:04,VALID,918.774,VALID,0,VALID,96.6268,VALID,0.107441,VALID,21.008,VALID,39,VALID,0.126172,
2010-03-05, 00:55:04,VALID,918.761,VALID,0,VALID,96.6344,VALID,0.107441,VALID,20.9869,VALID,39,VALID,0.270312,
2010-03-05, 00:56:04,VALID,918.785,VALID,0,VALID,96.6115,VALID,0.107441,VALID,20.9869,VALID,39,VALID,0.282813,
2010-03-05, 00:57:04,VALID,918.752,VALID,0,VALID,96.6039,VALID,0.107441,VALID,20.9885,VALID,39,VALID,0.255078,
2010-03-05, 00:58:04,VALID,918.763,VALID,0,VALID,96.6725,VALID,0,VALID,20.9901,VALID,39,VALID,0.2,
2010-03-05, 00:59:04,VALID,918.747,VALID,0,VALID,96.5811,VALID,0,VALID,20.9901,VALID,38,VALID,0.2625,
2010-03-05, 01:00:04,VALID,918.752,VALID,0,VALID,96.5353,VALID,0,VALID,20.9511,VALID,39,VALID,0.218359,
2010-03-05, 01:01:04,VALID,918.726,VALID,0,VALID,96.4819,VALID,0,VALID,20.912,VALID,38,VALID,0.405859,
2010-03-05, 01:02:04,VALID,918.728,VALID,0,VALID,96.4133,VALID,0,VALID,20.8535,VALID,39,VALID,0.414453,
2010-03-05, 01:03:04,VALID,918.69,VALID,0,VALID,96.3676,VALID,0,VALID,20.834,VALID,39,VALID,0.514844,
2010-03-05, 01:04:04,VALID,918.687,VALID,0,VALID,96.36,VALID,0,VALID,20.795,VALID,39,VALID,0.607422,
2010-03-05, 01:05:04,VALID,918.693,VALID,0,VALID,96.4133,VALID,0,VALID,20.7755,VALID,39,VALID,0.576953,
2010-03-05, 01:06:04,VALID,918.671,VALID,0,VALID,96.5506,VALID,0,VALID,20.8356,VALID,39,VALID,0.510547,
2010-03-05, 01:07:04,VALID,918.686,VALID,0,VALID,96.5429,VALID,0,VALID,20.795,VALID,39,VALID,0.539844,
2010-03-05, 01:08:04,VALID,918.685,VALID,0,VALID,96.5734,VALID,0,VALID,20.795,VALID,38,VALID,0.449219,
2010-03-05, 01:09:04,VALID,918.623,VALID,0,VALID,96.5506,VALID,0,VALID,20.7755,VALID,39,VALID,0.487891,
2010-03-05, 01:10:04,VALID,918.624,VALID,0,VALID,96.4896,VALID,0,VALID,20.756,VALID,39,VALID,0.436328,
2010-03-05, 01:11:04,VALID,918.601,VALID,0,VALID,96.4743,VALID,0,VALID,20.717,VALID,39,VALID,0.608203,
2010-03-05, 01:12:04,VALID,918.59,VALID,0,VALID,96.5887,VALID,0,VALID,20.7349,VALID,39,VALID,0.578125,
2010-03-05, 01:13:04,VALID,918.541,VALID,0,VALID,96.642,VALID,0,VALID,20.756,VALID,38,VALID,0.809375,
2010-03-05, 01:14:04,VALID,918.52,VALID,0,VALID,96.6802,VALID,0,VALID,20.7771,VALID,39,VALID,0.571875,
2010-03-05, 01:15:04,VALID,918.541,VALID,0,VALID,96.6954,VALID,0,VALID,20.7755,VALID,38,VALID,0.684375,
2010-03-05, 01:16:04,VALID,918.496,VALID,0,VALID,96.764,VALID,0,VALID,20.795,VALID,38,VALID,0.397656,
2010-03-05, 01:17:04,VALID,918.495,VALID,0,VALID,96.7869,VALID,0,VALID,20.8145,VALID,38,VALID,0.332812,
2010-03-05, 01:18:04,VALID,918.505,VALID,0,VALID,96.8326,VALID,0,VALID,20.8746,VALID,38,VALID,0.250781,
2010-03-05, 01:19:04,VALID,918.496,VALID,0,VALID,96.8555,VALID,0,VALID,20.873,VALID,39,VALID,0.516016,
2010-03-05, 01:20:04,VALID,918.509,VALID,0,VALID,96.8479,VALID,0,VALID,20.873,VALID,38,VALID,0.196875,
2010-03-05, 01:21:04,VALID,918.5,VALID,0,VALID,96.886,VALID,0,VALID,20.9331,VALID,39,VALID,0,
2010-03-05, 01:22:04,VALID,918.492,VALID,0,VALID,96.8784,VALID,0,VALID,20.9316,VALID,39,VALID,0,
2010-03-05, 01:23:04,VALID,918.477,VALID,0,VALID,96.9012,VALID,0,VALID,20.9511,VALID,39,VALID,0.483594,
2010-03-05, 01:24:04,VALID,918.484,VALID,0,VALID,96.8631,VALID,0,VALID,20.912,VALID,38,VALID,0.460156,
2010-03-05, 01:25:04,VALID,918.473,VALID,0,VALID,96.8479,VALID,0,VALID,20.9316,VALID,39,VALID,0.491797,
2010-03-05, 01:26:04,VALID,918.469,VALID,0,VALID,96.8174,VALID,0,VALID,20.912,VALID,38,VALID,0.476172,
2010-03-05, 01:27:04,VALID,918.455,VALID,0,VALID,96.825,VALID,0,VALID,20.8925,VALID,39,VALID,0.512109,
2010-03-05, 01:28:04,VALID,918.464,VALID,0,VALID,96.8784,VALID,0,VALID,20.9511,VALID,38,VALID,0.462891,
2010-03-05, 01:29:04,VALID,918.447,VALID,0,VALID,96.8555,VALID,0,VALID,20.9511,VALID,39,VALID,0.446484,
2010-03-05, 01:30:04,VALID,918.405,VALID,0,VALID,96.9165,VALID,0,VALID,20.9706,VALID,39,VALID,0.526953,
2010-03-05, 01:31:04,VALID,918.398,VALID,0,VALID,96.8707,VALID,0,VALID,20.9511,VALID,39,VALID,0.510547,
2010-03-05, 01:32:04,VALID,918.429,VALID,0,VALID,96.8936,VALID,0,VALID,20.9511,VALID,39,VALID,0.548828,
2010-03-05, 01:33:04,VALID,918.429,VALID,0,VALID,96.825,VALID,0,VALID,20.9511,VALID,39,VALID,0.424219,
2010-03-05, 01:34:04,VALID,918.407,VALID,0,VALID,96.7945,VALID,0,VALID,20.9722,VALID,39,VALID,0.330469,
2010-03-05, 01:35:04,VALID,918.418,VALID,0,VALID,96.8555,VALID,0,VALID,20.9722,VALID,39,VALID,0.409766,
2010-03-05, 01:36:04,VALID,918.398,VALID,0,VALID,96.9089,VALID,0,VALID,21.0112,VALID,38,VALID,0.382031,
2010-03-05, 01:37:04,VALID,918.361,VALID,0,VALID,96.8936,VALID,0,VALID,20.9917,VALID,39,VALID,0.485938,
2010-03-05, 01:38:04,VALID,918.297,VALID,0,VALID,96.8707,VALID,0,VALID,21.0112,VALID,39,VALID,0.741406,
2010-03-05, 01:39:04,VALID,918.273,VALID,0,VALID,96.7869,VALID,0,VALID,20.9706,VALID,38,VALID,0.731641,
2010-03-05, 01:40:04,VALID,918.252,VALID,0,VALID,96.7335,VALID,0,VALID,20.912,VALID,39,VALID,0.599219,
2010-03-05, 01:41:04,VALID,918.22,VALID,0,VALID,96.7716,VALID,0,VALID,20.9316,VALID,39,VALID,0.571484,
2010-03-05, 01:42:04,VALID,918.188,VALID,0,VALID,96.6649,VALID,0,VALID,20.8925,VALID,38,VALID,0.764844,
2010-03-05, 01:43:04,VALID,918.177,VALID,0,VALID,96.5963,VALID,0.107441,VALID,20.8519,VALID,39,VALID,0.517187,
2010-03-05, 01:44:04,VALID,918.199,VALID,0,VALID,96.5506,VALID,0.107441,VALID,20.8324,VALID,38,VALID,0.363672,
2010-03-05, 01:45:04,VALID,918.219,VALID,0,VALID,96.5277,VALID,0,VALID,20.7934,VALID,38,VALID,0.358984,
2010-03-05, 01:46:04,VALID,918.22,VALID,0,VALID,96.5963,VALID,0,VALID,20.8129,VALID,39,VALID,0.563672,
2010-03-05, 01:47:04,VALID,918.219,VALID,0,VALID,96.6344,VALID,0,VALID,20.8113,VALID,39,VALID,0.438672,
2010-03-05, 01:48:04,VALID,918.202,VALID,0,VALID,96.5887,VALID,0.107441,VALID,20.8324,VALID,39,VALID,0.488281,
2010-03-05, 01:49:04,VALID,918.227,VALID,0,VALID,96.5658,VALID,0.107441,VALID,20.8324,VALID,39,VALID,0.596484,
2010-03-05, 01:50:04,VALID,918.209,VALID,0,VALID,96.5734,VALID,0,VALID,20.8324,VALID,38,VALID,0.379297,
2010-03-05, 01:51:04,VALID,918.175,VALID,0,VALID,96.4972,VALID,0,VALID,20.8129,VALID,39,VALID,0.278125,
2010-03-05, 01:52:04,VALID,918.201,VALID,0,VALID,96.4133,VALID,0.107441,VALID,20.7544,VALID,39,VALID,0.385547,
2010-03-05, 01:53:04,VALID,918.14,VALID,0,VALID,96.3219,VALID,0.107441,VALID,20.7154,VALID,39,VALID,0.294141,
2010-03-05, 01:54:04,VALID,918.123,VALID,0,VALID,96.3752,VALID,0.107441,VALID,20.7154,VALID,39,VALID,0.291016,
2010-03-05, 01:55:04,VALID,918.082,VALID,0,VALID,96.3829,VALID,0.107441,VALID,20.7349,VALID,39,VALID,0.141406,
2010-03-05, 01:56:04,VALID,918.07,VALID,0,VALID,96.4133,VALID,0.107441,VALID,20.6943,VALID,39,VALID,0.106641,
2010-03-05, 01:57:04,VALID,918.05,VALID,0,VALID,96.4438,VALID,0.107441,VALID,20.7154,VALID,38,VALID,0.0714844,
2010-03-05, 01:58:04,VALID,918.022,VALID,0,VALID,96.4667,VALID,0.107441,VALID,20.7349,VALID,38,VALID,0.257813,
2010-03-05, 01:59:04,VALID,918.016,VALID,0,VALID,96.4819,VALID,0.107441,VALID,20.7544,VALID,39,VALID,0.212891,
2010-03-05, 02:00:04,VALID,917.975,VALID,0,VALID,96.5048,VALID,0.107441,VALID,20.7544,VALID,39,VALID,0.394922,
2010-03-05, 02:01:04,VALID,917.97,VALID,0,VALID,96.4515,VALID,0.107441,VALID,20.7739,VALID,38,VALID,0.445703,
2010-03-05, 02:02:04,VALID,917.936,VALID,0,VALID,96.4591,VALID,0.107441,VALID,20.7934,VALID,39,VALID,0,
2010-03-05, 02:03:04,VALID,917.904,VALID,0,VALID,96.3524,VALID,0.107441,VALID,20.7934,VALID,38,VALID,0,
2010-03-05, 02:04:04,VALID,917.898,VALID,0,VALID,96.2761,VALID,0.107441,VALID,20.7934,VALID,39,VALID,0,
2010-03-05, 02:05:04,VALID,917.889,VALID,0,VALID,96.1999,VALID,0.107441,VALID,20.7739,VALID,38,VALID,0.378906,
2010-03-05, 02:06:04,VALID,917.919,VALID,0,VALID,96.1618,VALID,0.107441,VALID,20.7934,VALID,38,VALID,0.29375,
2010-03-05, 02:07:04,VALID,917.931,VALID,0,VALID,96.0779,VALID,0.107441,VALID,20.7544,VALID,38,VALID,0.136719,
2010-03-05, 02:08:04,VALID,917.917,VALID,0,VALID,96.0855,VALID,0.107441,VALID,20.795,VALID,39,VALID,0.233594,
2010-03-05, 02:09:04,VALID,917.91,VALID,0,VALID,95.9712,VALID,0.107441,VALID,20.7528,VALID,39,VALID,0.367188,
2010-03-05, 02:10:04,VALID,917.891,VALID,0,VALID,95.834,VALID,0.107441,VALID,20.7544,VALID,38,VALID,0.606641,
2010-03-05, 02:11:04,VALID,917.887,VALID,0,VALID,95.7425,VALID,0.107441,VALID,20.7544,VALID,38,VALID,0.839453,
2010-03-05, 02:12:04,VALID,917.855,VALID,0,VALID,95.6891,VALID,0.107441,VALID,20.7349,VALID,38,VALID,0.816797,
2010-03-05, 02:13:04,VALID,917.835,VALID,0,VALID,95.6434,VALID,0,VALID,20.7365,VALID,39,VALID,0.90625,
2010-03-05, 02:14:04,VALID,917.801,VALID,0,VALID,95.6357,VALID,0,VALID,20.717,VALID,38,VALID,1.09648,
2010-03-05, 02:15:04,VALID,917.794,VALID,0,VALID,95.5824,VALID,0,VALID,20.6764,VALID,38,VALID,0.537891,
2010-03-05, 02:16:04,VALID,917.804,VALID,0,VALID,95.5443,VALID,0,VALID,20.678,VALID,39,VALID,0.551953,
2010-03-05, 02:17:04,VALID,917.759,VALID,0,VALID,95.59,VALID,0,VALID,20.6585,VALID,39,VALID,0.556641,
2010-03-05, 02:18:04,VALID,917.76,VALID,0,VALID,95.6129,VALID,0,VALID,20.678,VALID,39,VALID,0.93125,
2010-03-05, 02:19:04,VALID,917.759,VALID,0,VALID,95.5214,VALID,0,VALID,20.639,VALID,39,VALID,0.710547,
2010-03-05, 02:20:04,VALID,917.753,VALID,0,VALID,95.5519,VALID,0,VALID,20.6194,VALID,39,VALID,0.930859,
2010-03-05, 02:21:04,VALID,917.762,VALID,0,VALID,95.5367,VALID,0,VALID,20.5999,VALID,39,VALID,0.767187,
2010-03-05, 02:22:04,VALID,917.787,VALID,0,VALID,95.6357,VALID,0,VALID,20.5804,VALID,39,VALID,0.999609,
2010-03-05, 02:23:04,VALID,917.82,VALID,0,VALID,95.712,VALID,0,VALID,20.5594,VALID,38,VALID,0.703906,
2010-03-05, 02:24:04,VALID,917.811,VALID,0,VALID,95.8111,VALID,0,VALID,20.5609,VALID,39,VALID,0.477734,
2010-03-05, 02:25:04,VALID,917.776,VALID,0,VALID,95.9559,VALID,0,VALID,20.5804,VALID,39,VALID,0.495703,
2010-03-05, 02:26:04,VALID,917.731,VALID,0,VALID,96.0627,VALID,0,VALID,20.5999,VALID,39,VALID,0.0367187,
2010-03-05, 02:27:04,VALID,917.74,VALID,0,VALID,96.0855,VALID,0,VALID,20.5804,VALID,38,VALID,0.439453,
2010-03-05, 02:28:04,VALID,917.773,VALID,0,VALID,96.1084,VALID,0.107441,VALID,20.5399,VALID,39,VALID,0.435547,
2010-03-05, 02:29:04,VALID,917.777,VALID,0,VALID,96.1389,VALID,0.107441,VALID,20.5594,VALID,39,VALID,0.540234,
2010-03-05, 02:30:04,VALID,917.805,VALID,0,VALID,96.1923,VALID,0.107441,VALID,20.5399,VALID,39,VALID,0.911328,
2010-03-05, 02:31:04,VALID,917.82,VALID,0,VALID,96.2609,VALID,0,VALID,20.5594,VALID,38,VALID,0.466016,
2010-03-05, 02:32:04,VALID,917.804,VALID,0,VALID,96.2685,VALID,0.107441,VALID,20.5594,VALID,39,VALID,0.213281,
2010-03-05, 02:33:04,VALID,917.817,VALID,0,VALID,96.2914,VALID,0.107441,VALID,20.5984,VALID,38,VALID,0.383203,
2010-03-05, 02:34:04,VALID,917.783,VALID,0,VALID,96.299,VALID,0.107441,VALID,20.5789,VALID,38,VALID,0.345703,
2010-03-05, 02:35:04,VALID,917.722,VALID,0,VALID,96.3447,VALID,0.107441,VALID,20.5984,VALID,38,VALID,0.242188,
2010-03-05, 02:36:04,VALID,917.737,VALID,0,VALID,96.3295,VALID,0.107441,VALID,20.5773,VALID,38,VALID,0,
2010-03-05, 02:37:04,VALID,917.689,VALID,0,VALID,96.3066,VALID,0.107441,VALID,20.5789,VALID,39,VALID,0,
2010-03-05, 02:38:04,VALID,917.661,VALID,0,VALID,96.2533,VALID,0.107441,VALID,20.5594,VALID,38,VALID,0.00078125,
2010-03-05, 02:39:04,VALID,917.676,VALID,0,VALID,96.1846,VALID,0.107441,VALID,20.5399,VALID,38,VALID,0.586719,
2010-03-05, 02:40:04,VALID,917.646,VALID,0,VALID,96.1618,VALID,0,VALID,20.5009,VALID,39,VALID,0.482031,
2010-03-05, 02:41:04,VALID,917.653,VALID,0,VALID,96.2151,VALID,0,VALID,20.5009,VALID,38,VALID,0.385156,
2010-03-05, 02:42:04,VALID,917.653,VALID,0,VALID,96.2456,VALID,0.107441,VALID,20.5009,VALID,39,VALID,0,
2010-03-05, 02:43:04,VALID,917.642,VALID,0,VALID,96.177,VALID,0,VALID,20.4634,VALID,39,VALID,0,
2010-03-05, 02:44:04,VALID,917.669,VALID,0,VALID,96.1465,VALID,0,VALID,20.4228,VALID,39,VALID,0.0523437,
2010-03-05, 02:45:04,VALID,917.711,VALID,0,VALID,95.9559,VALID,0,VALID,20.3659,VALID,39,VALID,0.322656,
2010-03-05, 02:46:04,VALID,917.707,VALID,0,VALID,95.6739,VALID,0,VALID,20.2684,VALID,39,VALID,0.566406,
2010-03-05, 02:47:04,VALID,917.712,VALID,0,VALID,95.8873,VALID,0,VALID,20.2473,VALID,38,VALID,0.896484,
2010-03-05, 02:48:04,VALID,917.706,VALID,0,VALID,96.238,VALID,0,VALID,20.3253,VALID,38,VALID,1.08828,
2010-03-05, 02:49:04,VALID,917.736,VALID,0,VALID,96.3371,VALID,0,VALID,20.3448,VALID,38,VALID,0.49375,
2010-03-05, 02:50:04,VALID,917.737,VALID,0,VALID,96.4286,VALID,0,VALID,20.3838,VALID,39,VALID,0.877734,
2010-03-05, 02:51:04,VALID,917.685,VALID,0,VALID,96.5124,VALID,0,VALID,20.4439,VALID,38,VALID,0.740234,
2010-03-05, 02:52:04,VALID,917.671,VALID,0,VALID,96.5277,VALID,0,VALID,20.4618,VALID,38,VALID,0.88125,
2010-03-05, 02:53:04,VALID,917.674,VALID,0,VALID,96.5201,VALID,0,VALID,20.4813,VALID,38,VALID,0.582422,
2010-03-05, 02:54:04,VALID,917.695,VALID,0,VALID,96.4819,VALID,0,VALID,20.5399,VALID,38,VALID,0.427344,
2010-03-05, 02:55:04,VALID,917.681,VALID,0,VALID,96.4438,VALID,0,VALID,20.5399,VALID,38,VALID,0.737109,
2010-03-05, 02:56:04,VALID,917.682,VALID,0,VALID,96.3752,VALID,0.107441,VALID,20.5204,VALID,38,VALID,0.783203,
2010-03-05, 02:57:04,VALID,917.688,VALID,0,VALID,96.36,VALID,0,VALID,20.5009,VALID,81,VALID,1.08789,
2010-03-05, 02:58:04,VALID,917.705,VALID,0,VALID,96.3219,VALID,0.107441,VALID,20.4618,VALID,197,VALID,0.837109,
2010-03-05, 02:59:04,VALID,917.679,VALID,0,VALID,96.3752,VALID,0.107441,VALID,20.4423,VALID,197,VALID,0.534766,
2010-03-05, 03:00:04,VALID,917.694,VALID,0,VALID,96.4591,VALID,0,VALID,20.4423,VALID,197,VALID,0.644922,
2010-03-05, 03:01:04,VALID,917.652,VALID,0,VALID,96.5048,VALID,0,VALID,20.4228,VALID,197,VALID,0.301172,
2010-03-05, 03:02:04,VALID,917.651,VALID,0,VALID,96.5353,VALID,0.107441,VALID,20.4228,VALID,197,VALID,0.00585938,
2010-03-05, 03:03:04,VALID,917.661,VALID,0,VALID,96.6115,VALID,0,VALID,20.4228,VALID,197,VALID,0.0410156,
2010-03-05, 03:04:04,VALID,917.644,VALID,0,VALID,96.6268,VALID,0.107441,VALID,20.4228,VALID,197,VALID,0.153516,
2010-03-05, 03:05:04,VALID,917.628,VALID,0,VALID,96.6268,VALID,0,VALID,20.4228,VALID,197,VALID,0,
2010-03-05, 03:06:04,VALID,917.598,VALID,0,VALID,96.7183,VALID,0.107441,VALID,20.4423,VALID,197,VALID,0.367578,
2010-03-05, 03:07:04,VALID,917.586,VALID,0,VALID,96.7869,VALID,0.107441,VALID,20.4813,VALID,197,VALID,0.307813,
2010-03-05, 03:08:04,VALID,917.518,VALID,0,VALID,96.7716,VALID,0,VALID,20.4618,VALID,197,VALID,0.00195313,
2010-03-05, 03:09:04,VALID,917.475,VALID,0,VALID,96.7183,VALID,0,VALID,20.4634,VALID,197,VALID,0,
2010-03-05, 03:10:04,VALID,917.452,VALID,0,VALID,96.6954,VALID,0.107441,VALID,20.4033,VALID,197,VALID,0,
2010-03-05, 03:11:04,VALID,917.426,VALID,0,VALID,96.703,VALID,0,VALID,20.4033,VALID,197,VALID,0,
2010-03-05, 03:12:04,VALID,917.39,VALID,0,VALID,96.8098,VALID,0.107441,VALID,20.4228,VALID,197,VALID,0.317187,
2010-03-05, 03:13:04,VALID,917.385,VALID,0,VALID,96.8631,VALID,0.107441,VALID,20.4813,VALID,197,VALID,0.439063,
2010-03-05, 03:14:04,VALID,917.343,VALID,0,VALID,96.9394,VALID,0.107441,VALID,20.5219,VALID,197,VALID,0.394141,
2010-03-05, 03:15:04,VALID,917.335,VALID,0,VALID,96.9394,VALID,0,VALID,20.5204,VALID,197,VALID,0.151562,
2010-03-05, 03:16:04,VALID,917.326,VALID,0,VALID,96.947,VALID,0,VALID,20.5204,VALID,197,VALID,0.256641,
2010-03-05, 03:17:04,VALID,917.352,VALID,0,VALID,96.9622,VALID,0.107441,VALID,20.5399,VALID,197,VALID,0,
2010-03-05, 03:18:04,VALID,917.367,VALID,0,VALID,96.9775,VALID,0.107441,VALID,20.5399,VALID,197,VALID,0,
2010-03-05, 03:19:04,VALID,917.372,VALID,0,VALID,96.947,VALID,0.107441,VALID,20.5414,VALID,197,VALID,0.0605469,
2010-03-05, 03:20:04,VALID,917.387,VALID,0,VALID,96.8555,VALID,0,VALID,20.4618,VALID,197,VALID,0.361719,
2010-03-05, 03:21:04,VALID,917.385,VALID,0,VALID,96.764,VALID,0.107441,VALID,20.4228,VALID,197,VALID,0.336328,
2010-03-05, 03:22:04,VALID,917.385,VALID,0,VALID,96.8326,VALID,0,VALID,20.3643,VALID,197,VALID,0.284766,
2010-03-05, 03:23:04,VALID,917.38,VALID,0,VALID,96.9089,VALID,0,VALID,20.3838,VALID,197,VALID,0.226563,
2010-03-05, 03:24:04,VALID,917.383,VALID,0,VALID,97.008,VALID,0,VALID,20.4033,VALID,197,VALID,0.110937,
2010-03-05, 03:25:04,VALID,917.39,VALID,0,VALID,97.0537,VALID,0,VALID,20.4634,VALID,197,VALID,0,
2010-03-05, 03:26:04,VALID,917.359,VALID,0,VALID,96.9927,VALID,0,VALID,20.4423,VALID,197,VALID,0.223047,
2010-03-05, 03:27:04,VALID,917.379,VALID,0,VALID,96.9698,VALID,0,VALID,20.4033,VALID,197,VALID,0.234375,
2010-03-05, 03:28:04,VALID,917.367,VALID,0,VALID,96.8707,VALID,0.107441,VALID,20.3643,VALID,197,VALID,0.422266,
2010-03-05, 03:29:04,VALID,917.381,VALID,0,VALID,96.8784,VALID,0.107441,VALID,20.3253,VALID,197,VALID,0.880078,
2010-03-05, 03:30:04,VALID,917.387,VALID,0,VALID,96.9317,VALID,0,VALID,20.3269,VALID,197,VALID,0.724219,
2010-03-05, 03:31:04,VALID,917.388,VALID,0,VALID,96.9546,VALID,0,VALID,20.2863,VALID,197,VALID,0.864844,
2010-03-05, 03:32:04,VALID,917.366,VALID,0,VALID,96.9927,VALID,0,VALID,20.3074,VALID,197,VALID,0.646094,
2010-03-05, 03:33:04,VALID,917.358,VALID,0,VALID,97.0385,VALID,0,VALID,20.2863,VALID,197,VALID,0.699219,
2010-03-05, 03:34:04,VALID,917.349,VALID,0,VALID,97.0842,VALID,0,VALID,20.3058,VALID,197,VALID,0.869922,
2010-03-05, 03:35:04,VALID,917.41,VALID,0,VALID,97.0003,VALID,0.107441,VALID,20.2668,VALID,197,VALID,0.725,
2010-03-05, 03:36:04,VALID,917.369,VALID,0,VALID,97.0232,VALID,0.107441,VALID,20.2668,VALID,197,VALID,0.703516,
2010-03-05, 03:37:04,VALID,917.416,VALID,0,VALID,97.0308,VALID,0,VALID,20.2489,VALID,197,VALID,0.841406,
2010-03-05, 03:38:04,VALID,917.408,VALID,0,VALID,97.0766,VALID,0,VALID,20.2489,VALID,197,VALID,0.703125,
2010-03-05, 03:39:04,VALID,917.425,VALID,0,VALID,97.1299,VALID,0,VALID,20.2473,VALID,197,VALID,1.06719,
2010-03-05, 03:40:04,VALID,917.443,VALID,0,VALID,97.069,VALID,0.107441,VALID,20.2278,VALID,197,VALID,1.26055,
2010-03-05, 03:41:04,VALID,917.414,VALID,0,VALID,97.0308,VALID,0,VALID,20.2083,VALID,197,VALID,1.14141,
2010-03-05, 03:42:04,VALID,917.439,VALID,0,VALID,97.0918,VALID,0.107441,VALID,20.2083,VALID,197,VALID,1.3082,